Location: Champseau
(45.8333°N, 1.7667°E)
Time: 19:40:48
(UTC+00:00)

STRAND 1 - Pass Details

Date: 03 December 2021
Orbit: 768 x 780 km, 98.4° (Epoch: 23 January)

Event Time Altitude Azimuth Distance (km) Brightness Sun altitude
Rises 04:45:45 0° 123° (ESE) 3,250 ? -25.4°
Reaches altitude 10° 04:48:34 10° 108° (ESE) 2,325 ? -24.9°
Maximum altitude 04:52:17 21° 61° (ENE) 1,704 ? -24.3°
Drops below altitude 10° 04:56:00 10° 14° (NNE) 2,330 ? -23.6°
Sets 04:58:49 0° 359° (N) 3,259 ? -23.1°
